Regional Weather Roundup
Issued by NWS

Home | Current Version | Previous Version | Graphics & Text | Print | Product List | Glossary On
Versions: 1 2 3 4 5 6 7 8 9 10 11 12 13 14 15 16 17 18 19 20 21 22 23 24 25 26 27 28 29 30 31 32 33 34 35 36 37 38 39 40 41 42 43 44 45 46 47 48 49 50
405
ASUS44 KMEG 230600
RWRTN
TENNESSEE HOURLY STATE WEATHER ROUNDUP
NATIONAL WEATHER SERVICE MEMPHIS TN
100 AM CDT FRI JUN 23 2017

TNZ002-004-019-021-049-052-054-088>092-230700-
WEST TENNESSEE

CITY           SKY/WX    TMP DP  RH WIND       PRES   REMARKS
MEMPHIS INTL   CLOUDY    79  75  87 S16G22    29.75F
NWS MEMPHIS      N/A     77 N/A N/A MISG        N/A
JACKSON        CLOUDY    77  76  96 S9G18     29.80F
$$

TNZ008-025-027-028-033-062-065-066-230700-
NORTH MIDDLE TENNESSEE

CITY           SKY/WX    TMP DP  RH WIND       PRES   REMARKS
NASHVILLE      CLOUDY    77  73  87 S7        29.89S
CLARKSVILLE    PTCLDY    76  71  85 S6        29.83F
SMYRNA         CLOUDY    77  73  87 S5        29.90F
CROSSVILLE     CLOUDY    72  69  90 VRB5      30.00F
$$

TNZ061-075-076-078-094-096-097-230700-
SOUTH MIDDLE TENNESSEE

CITY           SKY/WX    TMP DP  RH WIND       PRES   REMARKS
$$

TNZ017-018-042-046-047-230700-
NORTHEAST TENNESSEE

CITY           SKY/WX    TMP DP  RH WIND       PRES   REMARKS
TRI CITIES     CLOUDY    72  69  90 CALM      30.03F
$$

TNZ012-013-036-069-073-074-230700-
CENTRAL EAST TENNESSEE

CITY           SKY/WX    TMP DP  RH WIND       PRES   REMARKS
KNOXVILLE      CLOUDY    72  71  97 CALM      29.97F
OAK RIDGE      LGT RAIN  73  71  93 CALM      29.99F
GATLINBURG     CLOUDY    72  72 100 CALM      29.98F
$$

TNZ083-085-099-230700-
SOUTHEAST TENNESSEE

CITY           SKY/WX    TMP DP  RH WIND       PRES   REMARKS
CHATTANOOGA    CLOUDY    76  73  91 S6        29.98S
$$

SKY/WX REPORTED AS FAIR MEANS FEW OR NO CLOUDS BELOW
12 THOUSAND FEET.





USA.gov is the U.S. government's official web portal to all federal, state and local government web resources and services.